Вернуться в каталог

GONETS M 22

АктивенСвязьPO
NORAD 47229·PAYLOAD·🇷🇺 Russia

Запущен Dec 3, 2020 с Plesetsk Cosmodrome

Loading…

Ближайшие Пролёты (ближайшие 24 часа)

TLE

СвежийSource: Space-Track

Эпоха: Sep 14, 2026, 15:01 UTC

1 47229U 20091C   26257.62621630 -.00000003  00000-0 -90909-4 0  9990
2 47229  82.4969 246.4219 0021485 344.5205  15.5215 12.42894601262135

Отслеживайте GONETS M 22 в реальном времени с AllMySat

Download on the App Store